[[{"header":{"parameterUnit":"m.s-1","parameterCategory":1,"la1":30.2991,"la2":30.254,"lo1":-89.0895,"lo2":-89.0444,"dy":0.0017,"dx":0.0017,"nx":28,"ny":28,"refTime":"2024-12-25T03:00:00:Z","depth":0,"parameterNumber":2,"parameterNumberName":"U-component_of_WINDS"},"data":[0,0,0,0,0,0,0,0,0,0,0,0,0,0,0,0,0,0,0,0,0,0,0,0,0,0,0,0,0,0,0,0,0,0,0,0,0,0,0,0,0,0,0,0,0,0,0,0,0,0,0,0,0,0,0,0,0,0,-6.5153,-6.5154,0,-6.5233,-6.5234,-6.5235,-6.5132,-6.5128,-6.5124,-6.5121,-6.5203,-6.5209,-6.5214,0,0,0,0,0,0,0,0,0,0,0,0,0,-6.4912,-6.4917,-6.5153,-6.5154,-6.5155,-6.5233,-6.5234,-6.5235,-6.5133,-6.5128,-6.5123,-6.5119,-6.5201,-6.5208,-6.5215,0,0,0,0,0,0,0,0,0,0,0,0,0,-6.5007,-6.4918,-6.5153,-6.5113,-6.511,-6.5233,-6.5234,-6.5236,-6.5134,-6.5128,-6.5122,-6.5117,-6.5199,-6.5207,-6.5216,-6.5381,0,0,-6.5242,-6.5245,0,0,0,0,0,0,0,0,-6.5002,-6.5016,-6.5118,-6.5116,-6.5113,-6.5167,-6.5179,-6.5284,-6.5135,-6.5125,-6.5121,-6.5114,-6.5196,-6.5204,-6.5231,-6.5385,-6.5388,-6.5242,-6.5248,-6.5251,-6.5254,0,0,0,0,0,0,0,-6.4995,-6.5012,-6.5185,-6.512,-6.5117,-6.5092,-6.5099,-6.5199,-6.5191,-6.5125,-6.5118,-6.5129,-6.5193,-6.5223,-6.5233,-6.539,-6.5242,-6.525,-6.5255,-6.5258,-6.5684,-6.569,0,0,0,0,0,0,-6.4993,-6.5007,-6.5182,-6.5187,-6.5042,-6.5101,-6.5109,-6.5155,-6.5189,-6.5189,-6.5134,-6.5124,-6.5212,-6.5223,-6.5235,-6.5431,-6.5251,-6.5259,-6.5264,-6.5678,-6.5686,-6.5692,0,0,0,0,0,0,-6.4988,-6.501,-6.5179,-6.5095,-6.5115,-6.5111,-6.5164,-6.516,-6.519,-6.5196,-6.5194,-6.5166,-6.5208,-6.5223,-6.5346,-6.5432,-6.5263,-6.5271,-6.5671,-6.568,-6.5689,-6.5824,0,0,0,0,0,0,-6.4982,-6.5009,-6.5071,-6.5097,-6.512,-6.5288,-6.5169,-6.5166,-6.5205,-6.5193,-6.5225,-6.5225,-6.5204,-6.5334,-6.5354,-6.5441,-6.5277,-6.5663,-6.5675,-6.5686,-6.5812,-6.5837,-6.5858,0,0,0,0,0,-6.4974,-6.5105,-6.5074,-6.5096,-6.5197,-6.5293,-6.5306,-6.5279,-6.5212,-6.5275,-6.5279,-6.5224,-6.542,-6.5347,-6.5369,-6.546,-6.5657,-6.5672,-6.5685,-6.5801,-6.5832,-6.5858,0,0,0,0,0,0,-6.5088,-6.5108,-6.5074,-6.5218,-6.5255,-6.5275,-6.5353,-6.5312,-6.5368,-6.5354,-6.5319,-6.5327,-6.5458,-6.5472,-6.539,-6.5623,-6.5528,-6.5547,-6.5608,-6.5638,-6.566,-6.5653,-6.5285,0,0,0,0,0,-6.513,-6.5206,-6.522,-6.5345,-6.5366,-6.5357,-6.5398,-6.5374,-6.5411,-6.5426,-6.5439,-6.5477,-6.5547,-6.5593,-6.5658,-6.5815,-6.582,-6.5888,-6.5911,-6.593,-6.5946,-6.6031,-6.6061,-6.5738,-6.5738,-6.5738,0,0,-6.5217,-6.5238,-6.5287,-6.5369,-6.5395,-6.5475,-6.5371,-6.5459,-6.5518,-6.5439,-6.5555,-6.5567,-6.5607,-6.5748,-6.581,-6.5763,-6.6038,-6.5948,-6.5963,-6.5969,-6.6048,-6.6079,-6.6106,-6.5748,-6.5746,-6.5744,0,0,-6.5416,-6.544,-6.5547,-6.5576,-6.5617,-6.5611,-6.5637,-6.5666,-6.567,-6.5787,-6.573,-6.58,-6.5921,-6.5952,-6.5984,-6.62,-6.6152,-6.6223,-6.6342,-6.6425,-6.6451,-6.6473,-6.6549,-6.6577,-6.6239,-6.624,-6.624,0,-6.5519,-6.5637,-6.5608,-6.5701,-6.5739,-6.5673,-6.5782,-6.5812,-6.5872,-6.59,-6.5846,-6.5998,-6.6021,-6.6168,-6.6221,-6.6249,-6.6278,-6.6217,-6.645,-6.6472,-6.6492,-6.6564,-6.6593,-6.6248,-6.6247,-6.6246,-6.6245,0,-6.5761,-6.5844,-6.5927,-6.5987,-6.6035,-6.6135,-6.6122,-6.6174,-6.6148,-6.6148,-6.6269,-6.6294,-6.6363,-6.6397,-6.6372,-6.6542,-6.6511,-6.6455,-6.6358,-6.6532,-6.6599,-6.6626,-6.6259,-6.6256,-6.6254,-6.6252,0,0,-6.603,-6.6076,-6.6107,-6.6134,-6.6176,-6.624,-6.6339,-6.6407,-6.6452,-6.6498,-6.6579,-6.6686,-6.6634,-6.6671,-6.6649,-6.6722,-6.6892,-6.6657,-6.6657,-6.6698,-6.708,-6.7121,-6.7153,-6.6861,-6.6867,-6.6871,-6.7076,0,-6.6229,-6.6399,-6.6378,-6.6541,-6.6618,-6.6559,-6.6645,-6.6681,-6.6685,-6.6751,-6.6755,-6.6831,-6.6758,-6.6779,-6.6849,-6.6856,-6.6967,-6.6841,-6.6937,-6.694,-6.6926,-6.7188,-6.7231,-6.7424,-6.7103,-6.7107,-6.711,0,-6.6481,-6.6537,-6.6708,-6.674,-6.6772,-6.685,-6.6911,-6.6976,-6.7016,-6.7014,-6.7057,-6.7023,-6.7124,-6.7028,-6.7166,-6.7081,-6.7119,-6.7129,-6.7136,-6.7141,-6.7034,-6.7199,-6.7484,-6.7513,-6.7152,-6.7148,-6.7145,0,-6.6659,-6.6776,-6.6894,-6.692,-6.6961,-6.7017,-6.7037,-6.7072,-6.7115,-6.717,-6.7198,-6.7264,-6.73,-6.7352,-6.7338,-6.727,-6.7479,-6.7382,-6.748,-6.748,-6.7524,-6.7521,-6.7817,-6.7553,-6.7553,-6.7552,-6.7551,0,-6.6881,-6.6987,-6.6974,-6.7047,-6.7165,-6.7142,-6.726,-6.7272,-6.7305,-6.7379,-6.7333,-6.7404,-6.7382,-6.7452,-6.7442,-6.7558,-6.7575,-6.7576,-6.7571,-6.7578,-6.7578,-6.7601,-6.7586,-6.756,-6.7558,-6.7557,-6.7555,0,-6.7097,-6.7092,-6.7217,-6.7247,-6.7257,-6.7343,-6.7369,-6.7438,-6.744,-6.7534,-6.7555,-6.7558,-6.7639,-6.7631,-6.7721,-6.7715,-6.7858,-6.7838,-6.7844,-6.7839,-6.7936,-6.7926,-6.8255,-6.8297,-6.8008,-6.8011,-6.8013,0,-6.7237,-6.7318,-6.7358,-6.7404,-6.7428,-6.7504,-6.7549,-6.753,-6.7578,-6.7633,-6.7695,-6.7772,-6.7831,-6.7963,-6.7973,-6.8043,-6.8024,-6.8135,-6.8033,-6.8039,-6.8023,-6.8018,-6.8026,-6.8153,-6.8156,-6.8159,-6.8161,0,-6.7486,-6.7481,-6.7547,-6.7614,-6.7668,-6.7719,-6.7766,-6.7807,-6.7793,-6.785,-6.7932,-6.7979,-6.8073,-6.8149,-6.8216,-6.8237,-6.8197,-6.8194,-6.822,-6.8226,-6.8225,-6.8226,-6.7896,-6.8185,-6.8183,-6.8181,-6.818,-6.8179,-6.7667,-6.7737,-6.7776,-6.7852,-6.7886,-6.7931,-6.7997,-6.8009,-6.8077,-6.8151,-6.8137,-6.823,-6.8271,-6.8356,-6.8384,-6.8457,-6.8417,-6.8455,-6.8464,-6.8473,-6.8483,-6.8217,-6.8469,-6.8469,-6.8468,-6.8467,-6.8467,0,-6.7912,-6.7936,-6.8006,-6.8073,-6.8134,-6.8094,-6.8144,-6.8197,-6.8279,-6.8321,-6.8382,-6.8477,-6.8553,-6.8571,-6.8643,-6.8698,-6.8682,-6.8718,-6.8712,-6.8717,-6.8516,-6.8485,-6.8729,-6.8729,-6.8729,-6.8729,-6.8729,-6.8729,-6.8046,-6.8162,-6.8163,-6.8296,-6.8319,-6.8409,-6.8442,-6.8484,-6.8517,-6.8626,-6.8689,-6.8701,-6.8734,-6.8809,-6.8877,-6.888,-6.8908,-6.8951,-6.8947,-6.8758,-6.8731,-6.8706,-6.8677,-6.8958,-6.8958,-6.9142,-6.9144,-6.9145]},{"header":{"parameterUnit":"m.s-1","parameterCategory":1,"la1":30.2991,"la2":30.254,"lo1":-89.0895,"lo2":-89.0444,"dy":0.0017,"dx":0.0017,"nx":28,"ny":28,"refTime":"2024-12-25T03:00:00:Z","depth":0,"parameterNumber":3,"parameterNumberName":"V-component_of_WINDS"},"data":[0,0,0,0,0,0,0,0,0,0,0,0,0,0,0,0,0,0,0,0,0,0,0,0,0,0,0,0,0,0,0,0,0,0,0,0,0,0,0,0,0,0,0,0,0,0,0,0,0,0,0,0,0,0,0,0,0,0,0.0074,0.0074,0,0.0107,0.0107,0.0107,0.0105,0.0104,0.0104,0.0103,0.0136,0.0137,0.0139,0,0,0,0,0,0,0,0,0,0,0,0,0,0.0012,0.0013,0.0074,0.0074,0.0075,0.0107,0.0107,0.0107,0.0105,0.0104,0.0104,0.0103,0.0135,0.0137,0.0139,0,0,0,0,0,0,0,0,0,0,0,0,0,0.0041,0.0013,0.0074,0.0077,0.0078,0.0107,0.0107,0.0108,0.0105,0.0104,0.0103,0.0103,0.0135,0.0137,0.0139,0.0166,0,0,0.0145,0.0146,0,0,0,0,0,0,0,0,0.0039,0.0043,0.0076,0.0077,0.0078,0.0101,0.0097,0.0127,0.0105,0.0095,0.0103,0.0102,0.0125,0.0128,0.0135,0.0167,0.0169,0.0145,0.0146,0.0147,0.0148,0,0,0,0,0,0,0,0.0037,0.0042,0.0087,0.0077,0.0078,0.0078,0.0081,0.0103,0.0113,0.0096,0.0095,0.0099,0.0125,0.0133,0.0136,0.0169,0.0145,0.0147,0.0148,0.0149,0.0229,0.023,0,0,0,0,0,0,0.0034,0.004,0.0086,0.0088,0.0056,0.008,0.0083,0.0094,0.0113,0.0115,0.01,0.0099,0.013,0.0134,0.0137,0.0173,0.0147,0.0149,0.015,0.0229,0.023,0.0231,0,0,0,0,0,0,0.0033,0.0038,0.0085,0.0064,0.007,0.0082,0.0094,0.0095,0.0104,0.0117,0.0119,0.0106,0.013,0.0134,0.016,0.0174,0.015,0.0152,0.0227,0.0229,0.023,0.0243,0,0,0,0,0,0,0.0031,0.0038,0.0047,0.0064,0.0071,0.0106,0.0095,0.0096,0.0107,0.0106,0.0123,0.0125,0.013,0.0157,0.0162,0.0176,0.0153,0.0226,0.0228,0.023,0.0241,0.0244,0.0247,0,0,0,0,0,0.0029,0.0049,0.0048,0.0053,0.0083,0.0107,0.0111,0.0116,0.0108,0.0119,0.0128,0.0125,0.0171,0.0159,0.0165,0.018,0.0225,0.0228,0.023,0.024,0.0244,0.0247,0,0,0,0,0,0,0.0032,0.0051,0.005,0.0076,0.009,0.0106,0.0119,0.0119,0.0135,0.0134,0.0139,0.0143,0.0169,0.0177,0.0163,0.0209,0.0198,0.0201,0.0203,0.0207,0.021,0.0208,0.0155,0,0,0,0,0,0.0036,0.0053,0.0068,0.009,0.0097,0.0107,0.0117,0.012,0.0135,0.0141,0.0151,0.0166,0.0184,0.0196,0.0213,0.0242,0.0248,0.0256,0.0259,0.0261,0.0264,0.0284,0.0289,0.0238,0.0238,0.0238,0,0,0.0043,0.0056,0.0066,0.0091,0.0102,0.0121,0.0112,0.0131,0.0146,0.0143,0.0169,0.0178,0.0194,0.0223,0.0236,0.023,0.028,0.0264,0.0266,0.0268,0.0287,0.0292,0.0296,0.0239,0.0239,0.0239,0,0,0.0067,0.0077,0.0098,0.011,0.0128,0.0135,0.0141,0.0158,0.0164,0.019,0.019,0.0207,0.0238,0.0251,0.0261,0.0295,0.0294,0.03,0.0317,0.0336,0.034,0.0343,0.0358,0.0363,0.0303,0.0303,0.0303,0,0.0074,0.0102,0.0108,0.0129,0.0141,0.0142,0.0164,0.0175,0.0198,0.0207,0.02,0.0241,0.0252,0.0285,0.0294,0.0302,0.031,0.0299,0.0339,0.0342,0.0346,0.036,0.0365,0.0304,0.0304,0.0304,0.0304,0,0.0112,0.0132,0.0146,0.017,0.0184,0.0205,0.0215,0.0228,0.0231,0.024,0.0268,0.0282,0.0304,0.0312,0.0313,0.0346,0.0343,0.0337,0.0326,0.0352,0.0365,0.037,0.0305,0.0305,0.0305,0.0305,0,0,0.0136,0.0166,0.0171,0.0184,0.0205,0.0221,0.0244,0.0266,0.0279,0.0295,0.0316,0.0343,0.034,0.0352,0.0356,0.0372,0.0402,0.0366,0.0366,0.0374,0.0443,0.0448,0.0454,0.0402,0.0403,0.0403,0.0443,0,0.0164,0.0204,0.0212,0.0248,0.0268,0.0271,0.0291,0.0307,0.0316,0.0336,0.0346,0.0367,0.0359,0.0367,0.0384,0.0395,0.0417,0.0392,0.0423,0.0423,0.042,0.0461,0.0465,0.0502,0.0448,0.0449,0.0449,0,0.0201,0.0221,0.0259,0.0282,0.029,0.0308,0.0332,0.0349,0.0369,0.0375,0.0391,0.0394,0.0419,0.0407,0.0443,0.0427,0.044,0.0448,0.0449,0.0453,0.0439,0.0468,0.0513,0.0519,0.0457,0.0456,0.0456,0,0.0219,0.0254,0.0283,0.0293,0.0319,0.0332,0.0344,0.0363,0.0377,0.0398,0.0408,0.0431,0.0444,0.0462,0.0472,0.0461,0.0509,0.0496,0.0517,0.0517,0.0527,0.0526,0.0577,0.0533,0.0532,0.0532,0.0532,0,0.025,0.0273,0.0291,0.0309,0.0337,0.0346,0.0374,0.0385,0.0403,0.0424,0.0427,0.0447,0.0458,0.048,0.0488,0.0519,0.0524,0.0531,0.0534,0.0532,0.0532,0.0542,0.054,0.0534,0.0534,0.0533,0.0533,0,0.0273,0.0286,0.0318,0.0341,0.0348,0.0368,0.0388,0.0407,0.0417,0.0444,0.0451,0.0468,0.0495,0.0507,0.0538,0.0544,0.0581,0.058,0.0574,0.0576,0.0596,0.0595,0.0656,0.0666,0.0613,0.0614,0.0614,0,0.0292,0.0311,0.0338,0.0353,0.0366,0.0389,0.0405,0.0416,0.0432,0.0459,0.0475,0.0502,0.0524,0.0567,0.0582,0.0608,0.0609,0.0629,0.0613,0.0612,0.0613,0.0612,0.0616,0.0632,0.0632,0.0633,0.0633,0,0.0326,0.0333,0.0355,0.0382,0.0401,0.0421,0.0442,0.0454,0.0469,0.0488,0.0516,0.0533,0.0568,0.0596,0.0623,0.0636,0.0639,0.0638,0.0645,0.0644,0.0642,0.0646,0.0585,0.0637,0.0636,0.0636,0.0636,0.0636,0.035,0.0368,0.0391,0.0418,0.0435,0.0455,0.0475,0.0489,0.0513,0.0543,0.0548,0.0579,0.0602,0.064,0.0654,0.0679,0.0675,0.0683,0.0686,0.0688,0.0691,0.0637,0.0684,0.0684,0.0684,0.0684,0.0684,0,0.0386,0.0402,0.0426,0.0456,0.0478,0.0479,0.0503,0.0521,0.0548,0.0569,0.0593,0.0627,0.0655,0.0674,0.0703,0.072,0.0722,0.0728,0.0727,0.0731,0.0692,0.0685,0.0726,0.0726,0.0726,0.0726,0.0726,0.0726,0.0408,0.044,0.045,0.0492,0.0508,0.0539,0.0553,0.0573,0.0591,0.0629,0.0653,0.0666,0.0688,0.0719,0.0746,0.0751,0.0763,0.0769,0.0774,0.0738,0.0733,0.0729,0.0722,0.0771,0.0771,0.0812,0.0812,0.0812]}]]